Flag for Bosnia-Herzegovina Weather past 2 weeks in Mostar, Bosnia-Herzegovina

Now
41 °F

Scattered clouds.


Feels Like: 41 °F
Forecast: 37 / 47 °F
Wind: 2 mph from North

Location: Mostar

Current Time: Mar 4, 2015 at 8:50:35 AM

Latest Report: Mar 4, 2015 at 8:30 AM


Visibility: N/A

Pressure: 30.24 "Hg

Humidity: 66%

Dew point: 30 °F

Location of MostarLocation

Historic Weather in Mostar — Graph

°F

Mostar temperature yesterday

Maximum temperature yesterday: 61 °F (at 1:30 PM)
Minimum temperature yesterday: 41 °F (at 7:00 AM)
Average temperature yesterday: 53 °F

Past Weeks' High & Low Weather Summary

 TemperatureHumidityPressure
High63 °F (Feb 28, 12:00 PM)100% (Feb 24, 3:00 AM)30.54 "Hg (Feb 24, 3:00 AM)
Low23 °F (Feb 20, 6:30 AM)11% (Feb 19, 2:30 PM)29.53 "Hg (Feb 22, 3:30 PM)
Average48 °F62%29.98 "Hg
* Reported Feb 17 7:00 AM — Mar 4 7:00 AM, Mostar, Weather by CustomWeather, © 2015

Note: Actual official high and low records may vary slightly from our data, if they occured in-between our weather recording intervals... More about our weather records

Advertising

Mostar weather history for previous 24 hours

 ConditionsComfort  
Time TempWeatherWind HumidityBarometerVisibility
7:00 AM
Wed, Mar 4
36 °FScattered clouds.3 mph81%30.24 "HgN/A
5:00 AM32 °FClear.5 mph87%30.24 "Hg10 mi
4:00 AM34 °FClear.3 mph81%30.24 "Hg10 mi
3:00 AM34 °FClear.1 mph81%30.24 "Hg10 mi
2:00 AM37 °FPassing clouds.3 mph70%30.27 "HgN/A
1:00 AM37 °FClear.5 mph70%30.27 "Hg10 mi
12:00 AM39 °FClear.5 mph65%30.24 "Hg10 mi
11:00 PM
Tue, Mar 3
41 °FClear.2 mph61%30.24 "Hg10 mi
10:00 PM43 °FClear.2 mph57%30.24 "Hg10 mi
9:00 PM50 °FClear.2 mph40%30.24 "Hg10 mi
8:00 PM50 °FClear.3 mph40%30.24 "Hg10 mi
7:00 PM52 °FClear.3 mph38%30.21 "Hg10 mi
6:00 PM55 °FClear.13 mph33%30.18 "Hg10 mi
5:00 PM57 °FSunny.12 mph31%30.15 "Hg10 mi
4:30 PM59 °FPassing clouds.13 mph27%30.15 "HgN/A
4:00 PM59 °FPassing clouds.13 mph27%30.15 "HgN/A
3:30 PM61 °FPassing clouds.15 mph25%30.15 "HgN/A
3:00 PM61 °FPassing clouds.16 mph29%30.15 "HgN/A
2:30 PM61 °FPassing clouds.15 mph29%30.15 "HgN/A
1:30 PM61 °FPassing clouds.16 mph27%30.15 "HgN/A
1:00 PM59 °FPassing clouds.21 mph29%30.15 "HgN/A
12:00 PM59 °FPassing clouds.14 mph31%30.15 "HgN/A
11:30 AM59 °FPassing clouds.9 mph31%30.15 "HgN/A
11:00 AM59 °FPassing clouds.3 mph34%30.15 "HgN/A
10:30 AM57 °FPassing clouds.2 mph39%30.12 "HgN/A
10:00 AM55 °FSunny.2 mph55%30.12 "Hg10 mi
9:30 AM54 °FPassing clouds.5 mph54%30.09 "HgN/A
9:00 AM50 °FSunny.5 mph71%30.09 "Hg10 mi
8:00 AM46 °FPassing clouds.2 mph82%30.07 "HgN/A
Weather by CustomWeather, © 2015

See weather overviewHow to use our weather pages